Showing default

QIANFAN-44, 62245

Orbit data source: Space-Track

QIANFAN-44, 62245 is a Chinese payload satellite in LEO that was launched on Thu, 05 Dec 2024 UTC via a CHANG ZHENG 6A launch vehicle from the Taiyaun Space Center, China (TSC). Payload-class satellites include a variety of spacecraft equipped with specific instruments for various scientific and technological missions. These include communications satellites like Starlink; space stations such as the ISS; scientific satellites like the Hubble; Earth observation satellites from companies like Planet Labs, Umbra, and HawkEye 360; GPS; miniature CubeSats for education and research; and military/defense satellites.

Loading next visibility...
Identifier
62245, 2024-232J
Orbit
LEO
Country
Flag of CNCN / PRC
Related business
Manufacturer
SECM
Mission
Operational Commercial Communications
Bus & Motor
QIANFAN, Unknown motor
Mass
267 kg wet, ~267 kg dry
Launch date (UTC)
2024-12-05 (1 year ago)
Launch vehicle
CHANG ZHENG 6A
Launch site
Taiyaun Space Center, China (TSC)
Object type
Payload
Rocket body
Debris
Shape & HBR
Box + 1 Pan, 5.0 m
Radar Cross Section
13.200 m², Large (>1 m²)

Expand to show TLE details & history
Last TLE update: 7 hours ago

TLE from 7 hours ago
0 QIANFAN-44
1 62245U 24232J   26035.14593865  .00000021  00000-0  14266-4 0  9995
2 62245  89.0011  35.6778 0015083  45.1433 315.0941 13.50985355106546
Epoch: 2026-02-04T03:30Z
TLE epoch observation values (Epoch: 2026-02-04T03:30:09.099Z)
Latitude
0.00003°
Longitude
-151.17683°
Altitude
1,063.64 km
Speed
7.324 km/s
True Right ascension
02h 22m 42s
True Declination
0° 00' 00"
Sunlit
Object was in daylight at epoch
Visualization orbit readout
Latitude
Unknown
Longitude
Unknown
Altitude
Unknown
Speed
Unknown
Apparent Right ascension
Unknown
Apparent Declination
Unknown
Sunlit
N/A
Visualization observer readout
Local Sidereal Time
12:24:05
Azimuth
Unknown
Elevation
Unknown
Doppler factor
Unknown
Orbital elements
Apogee altitude
1,076.914 km
Perigee altitude
1,054.459 km
Semi-major axis
7,443.823 km
Eccentricity
0.00151
Inclination
89.0011°
RAAN
35.6778°
Arg. of periapsis
45.1433°
True anomaly
314.97192°
Mean anomaly
315.0941°
Eccentric anomaly
315.03303°
Mean motion
3.37947 °/min
Orbital period
106.53 mins
BSTAR
0.000014266
Loading maneuver chart data...
Computing Atmospheric mass density...
Loading historical data...
Loading historical data...
Loading historical data...
Loading historical data...
Loading historical data...
Loading historical data...
Loading historical data...

Documentation

Showing up to 5 results
|